User: anonymous   Login
Location: Oregon Trail
(41.1872°N, 102.0741°W)
Time: 10:59:13
(UTC+00:00)
Language:

NOSS 3-4 (C) - Orbit

View from above orbital plane
View from above orbital plane
View from above satellite
View from above satellite

Ground track
Ground track

The orbit data is extracted from the following two-line orbital elements,

1 31708U 07027C   20019.27122065 0.00000000  00000-0  00000-0 0    05
2 31708  63.3946 190.5641 0270632  19.9928 340.1139 13.40794637    01
Epoch (UTC): 19 January 2020 06:30:33
Eccentricity: 0.0270632
inclination: 63.3946°
perigee height: 904 km
apogee height: 1309 km
right ascension of ascending node: 190.5641°
argument of perigee: 19.9928°
revolutions per day: 13.40794637
mean anomaly at epoch: 340.1139°
orbit number at epoch: 0

The dashed part of the orbit path shows where the satellite is in the earth's shadow,  

DLR